DW0275 Weather Reports


time (UTC)temp
C
wind
direction
speed
KPH
gust
KPH
rain 1hr
cm
rain 24hr
cm
rain mn
cm
humidity
%
barometer
mb
20260831170326 31 125 3.2 12.9 0.00 0.20 0.00 80 1017.4
20260831170040 31 129 4.8 12.9 0.00 0.20 0.00 80 1017.3
20260831165822 31 105 4.8 12.9 0.00 0.20 0.00 80 1017.4
20260831165319 31 101 4.8 11.3 0.00 0.20 0.00 80 1017.4
20260831164815 31 124 3.2 9.7 0.00 0.20 0.00 81 1017.5
20260831164519 31 148 1.6 11.3 0.00 0.20 0.00 82 1017.4
20260831164330 31 129 3.2 14.5 0.00 0.20 0.00 81 1017.6
20260831163827 31 127 3.2 14.5 0.00 0.20 0.00 81 1017.6
20260831163324 31 126 3.2 11.3 0.00 0.20 0.00 81 1017.6
20260831163010 31 106 1.6 11.3 0.00 0.20 0.00 81 1017.5
20260831162819 31 125 4.8 11.3 0.00 0.20 0.00 81 1017.6
20260831162315 31 153 4.8 12.9 0.00 0.20 0.00 81 1017.6
20260831161832 31 102 3.2 12.9 0.00 0.20 0.00 81 1017.7
20260831161601 31 115 1.6 6.4 0.00 0.20 0.00 80 1017.6
20260831161501 31 146 1.6 6.4 0.00 0.20 0.00 80 1017.6
20260831161329 31 149 3.2 6.4 0.00 0.20 0.00 81 1017.8
20260831160847 31 125 3.2 6.4 0.00 0.20 0.00 81 1017.9
20260831160343 31 136 1.6 9.7 0.00 0.20 0.00 81 1018.0
20260831160104 31 140 3.2 9.7 0.00 0.20 0.00 81 1017.9
20260831155818 31 115 3.2 9.7 0.00 0.23 0.00 81 1018.0
20260831155334 31 219 1.6 8.0 0.00 0.23 0.00 82 1018.1
20260831154831 32 151 4.8 8.0 0.00 0.23 0.00 81 1018.1
20260831154536 31 188 1.6 8.0 0.00 0.23 0.00 81 1017.9
20260831154327 31 153 3.2 8.0 0.00 0.23 0.00 82 1018.1
20260831153844 31 131 1.6 9.7 0.00 0.23 0.00 82 1018.2
20260831153319 31 146 3.2 11.3 0.00 0.23 0.00 82 1018.2
20260831153101 31 161 4.8 11.3 0.00 0.23 0.00 82 1018.1
20260831153001 31 139 6.4 11.3 0.00 0.23 0.00 82 1018.1
20260831152817 31 127 4.8 9.7 0.00 0.23 0.00 82 1018.2
20260831152335 31 133 3.2 9.7 0.00 0.23 0.00 82 1018.3
20260831151852 31 135 1.6 9.7 0.00 0.23 0.00 82 1018.2
20260831151523 30 141 3.2 9.7 0.00 0.23 0.00 82 1018.2
20260831151328 30 131 3.2 9.7 0.00 0.23 0.00 82 1018.2
20260831150825 31 113 3.2 6.4 0.00 0.23 0.00 82 1018.1
20260831150323 31 103 1.6 4.8 0.00 0.23 0.00 82 1018.1
20260831150012 30 127 0.0 4.8 0.00 0.23 0.00 82 1017.9
20260831145834 30 127 0.0 4.8 0.00 0.23 0.00 82 1018.0
20260831145350 30 122 3.2 4.8 0.00 0.23 0.00 82 1018.0
20260831144826 30 124 1.6 6.4 0.00 0.23 0.00 82 1018.0
20260831144534 30 71 1.6 6.4 0.00 0.23 0.00 82 1017.9
20260831144316 30 65 1.6 6.4 0.00 0.23 0.00 82 1018.0
20260831143815 30 86 3.2 9.7 0.00 0.23 0.00 82 1018.1
20260831143331 30 84 3.2 9.7 0.00 0.23 0.00 82 1018.0
20260831143019 30 134 3.2 9.7 0.00 0.23 0.00 82 1017.9
20260831142828 31 134 3.2 8.0 0.00 0.23 0.00 82 1018.0
20260831142325 31 51 1.6 6.4 0.00 0.23 0.00 82 1017.9
20260831141822 31 229 1.6 8.0 0.00 0.23 0.00 82 1017.9
20260831141614 31 129 3.2 8.0 0.00 0.23 0.00 82 1017.7
20260831141319 31 129 1.6 8.0 0.00 0.23 0.00 82 1018.0
20260831140817 31 129 1.6 6.4 0.00 0.23 0.00 82 1018.1
20260831140333 31 81 0.0 4.8 0.00 0.23 0.00 82 1017.9
20260831140046 31 122 0.0 4.8 0.00 0.23 0.00 82 1017.7
20260831135829 31 122 1.6 4.8 0.00 0.23 0.00 82 1017.8
20260831135324 31 119 0.0 3.2 0.00 0.23 0.00 82 1017.8
20260831134820 32 135 0.0 1.6 0.00 0.23 0.00 82 1017.8
20260831134541 31 70 0.0 0.0 0.00 0.23 0.00 84 1017.7
20260831134316 31 70 0.0 0.0 0.00 0.23 0.00 84 1017.7
20260831133900 30 70 0.0 0.0 0.00 0.23 0.00 84 1017.7
20260831133355 30 72 0.0 1.6 0.00 0.23 0.00 84 1017.9
20260831133037 30 72 0.0 1.6 0.00 0.23 0.00 86 1017.7
20260831132831 30 72 0.0 1.6 0.00 0.23 0.00 85 1017.6
20260831132327 30 134 0.0 1.6 0.00 0.23 0.00 88 1017.5
20260831131821 29 133 0.0 1.6 0.00 0.23 0.00 90 1017.5
20260831131524 28 134 0.0 0.0 0.00 0.23 0.00 91 1017.4
20260831131318 28 134 0.0 0.0 0.00 0.23 0.00 92 1017.5
20260831130834 28 134 0.0 0.0 0.00 0.23 0.00 93 1017.5
20260831130331 27 134 0.0 0.0 0.00 0.23 0.00 93 1017.4
20260831130009 27 134 0.0 1.6 0.00 0.23 0.00 94 1017.1
20260831125827 27 134 0.0 1.6 0.00 0.23 0.00 94 1017.3
20260831125323 27 134 0.0 3.2 0.00 0.23 0.00 94 1017.3
20260831124818 26 134 0.0 1.6 0.00 0.23 0.00 94 1017.2
20260831124608 26 358 0.0 3.2 0.00 0.23 0.00 94 1017.0
20260831124333 26 349 0.0 3.2 0.00 0.23 0.00 94 1017.0
20260831123827 26 328 0.0 1.6 0.00 0.23 0.00 94 1017.1
20260831123325 26 359 0.0 0.0 0.00 0.23 0.00 94 1017.1
20260831123044 25 359 0.0 0.0 0.00 0.23 0.00 94 1017.0
20260831122821 25 359 0.0 0.0 0.00 0.23 0.00 94 1017.1
20260831122319 25 1 0.0 1.6 0.00 0.23 0.00 94 1017.0
20260831121816 25 352 0.0 1.6 0.00 0.23 0.00 94 1017.0
20260831121531 25 352 0.0 1.6 0.00 0.23 0.00 94 1016.8
20260831121333 25 349 0.0 0.0 0.00 0.23 0.00 94 1016.9
20260831120831 25 349 0.0 0.0 0.00 0.23 0.00 94 1016.8
20260831120329 25 349 0.0 0.0 0.00 0.23 0.00 94 1016.7
20260831120023 25 349 0.0 0.0 0.00 0.23 0.00 94 1016.6
20260831115828 25 349 0.0 0.0 0.00 0.23 0.00 94 1016.7
20260831115326 25 349 0.0 0.0 0.00 0.23 0.00 94 1016.7
20260831114822 25 349 0.0 0.0 0.00 0.23 0.00 94 1016.7
20260831114559 25 349 0.0 0.0 0.00 0.23 0.00 94 1016.5
20260831114501 25 349 0.0 0.0 0.00 0.23 0.00 94 1016.5
20260831114319 25 349 0.0 0.0 0.00 0.23 0.00 94 1016.6
20260831113814 25 349 0.0 0.0 0.00 0.23 0.00 94 1016.6
20260831113330 25 349 0.0 0.0 0.00 0.23 0.00 94 1016.5
20260831113053 25 349 0.0 0.0 0.00 0.23 0.00 94 1016.4
20260831112827 25 349 0.0 0.0 0.00 0.23 0.00 94 1016.4
20260831112323 25 349 0.0 0.0 0.00 0.23 0.00 94 1016.4
20260831111550 25 347 0.0 0.0 0.00 0.23 0.00 94 1016.1
20260831111330 25 347 0.0 0.0 0.00 0.23 0.00 94 1016.2
20260831110827 25 347 0.0 0.0 0.00 0.23 0.00 94 1016.2
20260831110325 25 347 0.0 0.0 0.00 0.23 0.00 94 1016.2
20260831110039 25 347 0.0 0.0 0.00 0.23 0.00 94 1016.0
20260831105821 25 347 0.0 0.0 0.00 0.23 0.00 94 1016.0
20260831105318 25 347 0.0 0.0 0.00 0.23 0.00 94 1016.1
20260831104533 25 347 0.0 0.0 0.00 0.23 0.00 94 1015.9
20260831104330 25 347 0.0 0.0 0.00 0.23 0.00 94 1016.0
20260831103827 25 347 0.0 0.0 0.00 0.23 0.00 94 1016.0
20260831103324 25 347 0.0 0.0 0.00 0.23 0.00 94 1016.0
20260831103022 25 347 0.0 0.0 0.00 0.23 0.00 94 1015.9
20260831102821 25 347 0.0 0.0 0.00 0.23 0.00 94 1016.1
20260831102320 25 347 0.0 0.0 0.00 0.23 0.00 94 1016.0
20260831101837 25 347 0.0 0.0 0.00 0.23 0.00 94 1016.0
20260831101509 25 347 0.0 0.0 0.00 0.23 0.00 94 1015.9
20260831101353 25 347 0.0 0.0 0.00 0.23 0.00 94 1016.0
20260831100828 25 347 0.0 0.0 0.00 0.23 0.00 94 1016.1
20260831100327 25 347 0.0 0.0 0.00 0.23 0.00 94 1016.0
20260831100031 25 347 0.0 0.0 0.00 0.23 0.00 94 1015.8
20260831095822 25 347 0.0 0.0 0.00 0.23 0.00 94 1016.0
20260831095340 25 347 0.0 0.0 0.00 0.23 0.00 94 1015.9
20260831094850 25 347 0.0 0.0 0.00 0.23 0.00 94 1015.8
20260831094545 25 347 0.0 0.0 0.00 0.23 0.00 94 1015.7
20260831094326 25 347 0.0 0.0 0.00 0.23 0.00 94 1015.6
20260831093845 25 347 0.0 0.0 0.00 0.23 0.00 94 1015.5
20260831093320 25 347 0.0 0.0 0.00 0.23 0.00 94 1015.5
20260831093009 25 347 0.0 0.0 0.00 0.23 0.00 94 1015.4
20260831092819 25 347 0.0 0.0 0.00 0.23 0.00 94 1015.6
20260831092317 25 347 0.0 1.6 0.00 0.23 0.00 94 1015.6
20260831091834 25 347 0.0 3.2 0.00 0.23 0.00 94 1015.6
20260831091527 25 347 0.0 3.2 0.00 0.23 0.00 94 1015.5
20260831091331 25 347 1.6 3.2 0.00 0.23 0.00 94 1015.6
20260831090828 25 344 0.0 1.6 0.00 0.23 0.00 94 1015.7
20260831090323 25 342 0.0 1.6 0.00 0.23 0.00 94 1015.6
20260831090011 25 342 0.0 0.0 0.00 0.23 0.00 94 1015.7
20260831085838 25 342 0.0 0.0 0.00 0.23 0.00 94 1015.8
20260831085332 25 342 0.0 1.6 0.00 0.23 0.00 94 1015.9
20260831084828 25 342 0.0 1.6 0.00 0.23 0.00 94 1015.8
20260831084534 25 342 0.0 1.6 0.00 0.23 0.00 94 1015.7
20260831084326 25 342 0.0 1.6 0.00 0.23 0.00 94 1015.9
20260831083823 25 11 0.0 0.0 0.00 0.23 0.00 94 1015.8
20260831083320 25 11 0.0 0.0 0.00 0.23 0.00 94 1015.9
20260831083023 25 11 0.0 0.0 0.00 0.23 0.00 94 1015.8
20260831082816 25 11 0.0 0.0 0.00 0.23 0.00 94 1015.9
20260831082333 25 11 0.0 0.0 0.00 0.23 0.00 94 1016.0
20260831081830 25 11 0.0 0.0 0.00 0.23 0.00 94 1016.0
20260831081515 25 11 0.0 0.0 0.00 0.23 0.00 94 1015.9
20260831081326 25 11 0.0 0.0 0.00 0.23 0.00 94 1016.0
20260831080823 25 11 0.0 0.0 0.00 0.23 0.00 94 1016.1
20260831080321 25 11 0.0 0.0 0.00 0.23 0.00 94 1016.0
20260831080006 25 11 0.0 0.0 0.00 0.23 0.00 94 1016.0
20260831075839 25 11 0.0 0.0 0.00 0.23 0.00 94 1016.1
20260831075314 25 11 0.0 0.0 0.00 0.23 0.00 94 1016.0
20260831074830 25 11 0.0 0.0 0.00 0.23 0.00 94 1016.0
20260831074527 25 11 0.0 1.6 0.00 0.23 0.00 94 1015.9
20260831074327 25 11 0.0 1.6 0.00 0.23 0.00 94 1015.9
20260831073826 25 15 0.0 1.6 0.00 0.23 0.00 94 1016.0
20260831073322 25 29 0.0 0.0 0.00 0.23 0.00 94 1016.0
20260831073022 25 29 0.0 0.0 0.00 0.23 0.00 94 1015.9
20260831072818 25 29 0.0 0.0 0.00 0.23 0.00 94 1016.0
20260831072317 25 29 0.0 0.0 0.00 0.23 0.00 94 1016.1
20260831071836 25 29 0.0 0.0 0.00 0.23 0.00 94 1016.1
20260831071551 25 29 0.0 0.0 0.00 0.23 0.00 94 1016.0
20260831071352 25 29 0.0 0.0 0.00 0.23 0.00 94 1016.2
20260831070826 25 29 0.0 0.0 0.00 0.23 0.00 94 1016.2
20260831070324 25 29 0.0 0.0 0.00 0.23 0.00 94 1016.2
20260831070028 25 29 0.0 0.0 0.00 0.23 0.00 94 1016.1
20260831065821 25 29 0.0 0.0 0.00 0.23 0.00 94 1016.2
20260831065317 25 29 0.0 0.0 0.00 0.23 0.00 93 1016.3
20260831064815 25 29 0.0 0.0 0.00 0.23 0.00 93 1016.4
20260831064508 25 29 0.0 0.0 0.00 0.23 0.00 93 1016.3
20260831064331 25 29 0.0 0.0 0.00 0.23 0.00 93 1016.4
20260831063849 25 29 0.0 0.0 0.00 0.23 0.00 93 1016.5
20260831063324 25 29 0.0 0.0 0.00 0.23 0.00 93 1016.5
20260831063026 25 29 0.0 0.0 0.00 0.23 0.00 93 1016.4
20260831062821 25 29 0.0 0.0 0.00 0.23 0.00 93 1016.4
20260831062316 25 29 0.0 0.0 0.00 0.23 0.00 93 1016.3
20260831061833 25 29 0.0 0.0 0.00 0.23 0.00 93 1016.3
20260831061513 25 29 0.0 0.0 0.00 0.23 0.00 93 1016.3
20260831061328 25 29 0.0 0.0 0.00 0.23 0.00 93 1016.4
20260831060826 25 29 0.0 0.0 0.00 0.23 0.00 93 1016.4
20260831060323 25 29 0.0 0.0 0.00 0.23 0.00 93 1016.5
20260831060002 25 29 0.0 0.0 0.00 0.23 0.00 93 1016.5
20260831055840 25 29 0.0 0.0 0.00 0.23 0.00 93 1016.6
20260831055316 25 29 0.0 0.0 0.00 0.23 0.00 93 1016.7
20260831054832 25 29 0.0 0.0 0.00 0.23 0.00 93 1016.8
20260831054525 25 29 0.0 0.0 0.00 0.23 0.00 93 1016.8
20260831054329 25 29 0.0 0.0 0.00 0.23 0.00 93 1017.0
20260831053826 25 29 0.0 0.0 0.00 0.23 0.00 93 1016.9
20260831053324 25 29 0.0 0.0 0.00 0.23 0.00 93 1017.0
20260831053011 25 29 0.0 0.0 0.00 0.23 0.00 93 1017.0
20260831052821 25 29 0.0 0.0 0.00 0.23 0.00 93 1017.1
20260831052319 25 29 0.0 0.0 0.00 0.23 0.00 93 1017.2
20260831051816 25 29 0.0 0.0 0.00 0.23 0.00 93 1017.2
20260831051608 25 29 0.0 0.0 0.00 0.23 0.00 93 1017.3
20260831051332 25 29 0.0 0.0 0.00 0.23 0.00 93 1017.2
20260831050829 25 29 0.0 0.0 0.00 0.23 0.00 93 1017.3
20260831050326 25 29 0.0 0.0 0.00 0.23 0.00 93 1017.3
20260831050042 25 29 0.0 0.0 0.00 0.23 0.00 93 1017.2
20260831045823 25 29 0.0 0.0 0.00 0.23 0.00 93 1017.3
20260831045337 25 29 0.0 0.0 0.00 0.23 0.00 93 1017.3
20260831044832 25 29 0.0 0.0 0.00 0.23 0.00 93 1017.5
20260831044559 25 29 0.0 0.0 0.00 0.23 0.00 93 1017.4
20260831044500 25 29 0.0 0.0 0.00 0.23 0.00 93 1017.4
20260831044329 25 29 0.0 0.0 0.00 0.23 0.00 93 1017.5
20260831043848 25 29 0.0 0.0 0.00 0.23 0.00 93 1017.6
20260831043324 25 29 0.0 0.0 0.00 0.23 0.00 93 1017.6
20260831043021 25 29 0.0 0.0 0.00 0.23 0.00 93 1017.6
20260831042819 25 29 0.0 0.0 0.00 0.23 0.00 93 1017.6
20260831042337 25 29 0.0 0.0 0.00 0.23 0.00 93 1017.6
20260831041854 25 29 0.0 0.0 0.00 0.23 0.00 93 1017.6
20260831041540 25 29 0.0 0.0 0.00 0.23 0.00 93 1017.6
20260831041351 25 29 0.0 0.0 0.00 0.23 0.00 93 1017.6
20260831040848 25 29 0.0 0.0 0.00 0.23 0.00 93 1017.6
20260831040344 25 29 0.0 0.0 0.00 0.23 0.00 93 1017.6
20260831040028 25 29 0.0 0.0 0.00 0.23 0.00 93 1017.6
20260831035840 25 29 0.0 0.0 0.00 0.23 0.23 93 1017.7
20260831035355 25 29 0.0 0.0 0.00 0.23 0.23 93 1017.7
20260831034830 25 34 0.0 0.0 0.00 0.23 0.23 93 1017.8
20260831034546 25 49 0.0 0.0 0.00 0.23 0.23 93 1017.7
20260831034327 25 49 0.0 0.0 0.00 0.23 0.23 93 1017.8
20260831033822 25 50 0.0 0.0 0.00 0.23 0.23 93 1017.9
20260831033319 25 50 0.0 0.0 0.00 0.23 0.23 93 1017.9
20260831033033 25 50 0.0 0.0 0.00 0.23 0.23 93 1017.7
20260831032836 25 50 0.0 0.0 0.00 0.23 0.23 93 1017.8
20260831032353 25 50 0.0 0.0 0.00 0.23 0.23 93 1017.8
20260831031830 25 50 0.0 0.0 0.00 0.23 0.23 93 1017.8
20260831031553 25 50 0.0 0.0 0.00 0.23 0.23 93 1017.7
20260831031328 25 50 0.0 0.0 0.00 0.23 0.23 93 1017.8
20260831030824 25 50 0.0 0.0 0.00 0.23 0.23 93 1017.8
20260831030320 25 351 0.0 0.0 0.00 0.23 0.23 93 1017.8
20260831030035 25 350 0.0 0.0 0.00 0.23 0.23 93 1017.7
20260831025837 25 351 0.0 0.0 0.00 0.23 0.23 93 1017.9
20260831025329 25 350 0.0 0.0 0.00 0.23 0.23 93 1018.0
20260831024846 25 2 0.0 0.0 0.00 0.23 0.23 93 1017.8
20260831024600 25 2 0.0 0.0 0.00 0.23 0.23 93 1017.7
20260831024322 25 2 0.0 0.0 0.00 0.23 0.23 93 1017.8
20260831023839 25 2 0.0 0.0 0.00 0.23 0.23 93 1017.7
20260831023356 25 2 0.0 0.0 0.00 0.23 0.23 93 1017.6
20260831023053 25 2 0.0 0.0 0.00 0.23 0.23 93 1017.5
20260831022831 25 2 0.0 0.0 0.00 0.23 0.23 93 1017.7
20260831022326 25 2 0.0 0.0 0.00 0.23 0.23 93 1017.5
20260831021845 25 2 0.0 0.0 0.00 0.23 0.23 93 1017.5
20260831021545 25 2 0.0 0.0 0.00 0.23 0.23 93 1017.4
20260831021341 25 2 0.0 0.0 0.00 0.23 0.23 93 1017.6
20260831020817 25 2 0.0 0.0 0.00 0.23 0.23 92 1017.6
20260831020334 25 2 0.0 0.0 0.00 0.23 0.23 92 1017.7
20260831020009 25 2 0.0 1.6 0.00 0.23 0.23 92 1017.6
20260831015851 25 2 0.0 1.6 0.00 0.23 0.23 92 1017.7
20260831015328 25 41 0.0 0.0 0.00 0.23 0.23 92 1017.8
20260831014822 25 41 0.0 0.0 0.00 0.23 0.23 92 1017.8
20260831014518 25 41 0.0 0.0 0.00 0.23 0.23 92 1017.8
20260831014339 25 41 0.0 0.0 0.00 0.23 0.23 92 1017.9
20260831013855 25 41 0.0 0.0 0.00 0.23 0.23 92 1017.9
20260831013351 25 41 0.0 0.0 0.00 0.23 0.23 92 1017.9
20260831013007 25 41 0.0 0.0 0.00 0.23 0.23 92 1017.7
20260831012827 25 41 0.0 0.0 0.00 0.23 0.23 92 1017.8
20260831012324 25 41 0.0 1.6 0.03 0.23 0.23 92 1017.7
20260831011838 25 41 0.0 1.6 0.03 0.23 0.23 92 1017.8
20260831011530 25 41 0.0 1.6 0.05 0.23 0.23 92 1017.7
20260831011332 25 46 0.0 0.0 0.05 0.23 0.23 92 1017.7
20260831010830 25 57 0.0 0.0 0.05 0.23 0.23 92 1017.7
20260831010327 25 57 0.0 0.0 0.08 0.23 0.23 91 1017.8
20260831010020 25 56 0.0 1.6 0.08 0.23 0.23 91 1017.6
20260831005823 25 56 0.0 1.6 0.10 0.23 0.23 91 1017.7
20260831005318 25 56 0.0 1.6 0.13 0.23 0.23 91 1017.6
20260831004836 25 57 0.0 0.0 0.13 0.23 0.23 91 1017.6
20260831004559 24 57 0.0 0.0 0.13 0.23 0.23 91 1017.5
20260831004505 24 57 0.0 0.0 0.13 0.23 0.23 91 1017.5
20260831004353 25 57 0.0 0.0 0.13 0.23 0.23 91 1017.6
20260831003829 25 56 0.0 4.8 0.15 0.23 0.23 91 1017.6
20260831003327 25 111 0.0 4.8 0.18 0.23 0.23 91 1017.6
20260831003024 25 136 0.0 4.8 0.18 0.23 0.23 91 1017.6
20260831002824 25 152 0.0 4.8 0.20 0.23 0.23 91 1017.7
20260831002321 25 56 0.0 4.8 0.18 0.20 0.20 91 1017.7
20260831001838 25 68 1.6 8.0 0.18 0.20 0.20 91 1017.7
20260831001544 25 136 3.2 8.0 0.15 0.18 0.18 91 1017.6
20260831001315 25 58 1.6 4.8 0.15 0.18 0.18 91 1017.6
20260831000832 25 143 0.0 4.8 0.15 0.18 0.18 91 1017.6
20260831000332 25 135 1.6 8.0 0.13 0.15 0.15 91 1017.4
20260831000027 25 79 1.6 8.0 0.13 0.15 0.15 91 1017.2
20260830235826 25 53 1.6 8.0 0.10 0.13 0.13 91 1017.3
20260830235323 25 57 3.2 11.3 0.08 0.10 0.10 91 1017.3
20260830234820 25 117 4.8 14.5 0.08 0.10 0.10 91 1017.3
20260830234514 25 134 1.6 14.5 0.08 0.10 0.10 91 1017.1
20260830234318 25 43 3.2 14.5 0.08 0.10 0.10 91 1017.2
20260830233816 25 49 3.2 11.3 0.05 0.08 0.08 90 1017.2
20260830233333 25 65 3.2 11.3 0.03 0.05 0.05 90 1017.3
20260830233057 25 126 4.8 11.3 0.03 0.05 0.05 90 1017.4
20260830232832 26 102 3.2 11.3 0.00 0.03 0.03 90 1017.5
20260830232329 26 53 3.2 4.8 0.00 0.03 0.03 90 1017.4
20260830231828 26 129 0.0 8.0 0.00 0.03 0.03 89 1017.3
20260830231547 25 143 1.6 11.3 0.00 0.03 0.03 88 1017.1
20260830230827 26 117 6.4 9.7 0.00 0.03 0.03 87 1017.5
20260830230324 26 155 4.8 9.7 0.00 0.03 0.03 86 1017.5
20260830230036 26 147 1.6 12.9 0.00 0.03 0.03 86 1017.3
20260830225823 27 168 3.2 12.9 0.00 0.03 0.03 86 1017.3
20260830225322 27 152 4.8 12.9 0.00 0.03 0.03 86 1017.4
20260830224820 27 356 0.0 0.0 0.00 0.03 0.03 85 1017.1
20260830224518 27 356 0.0 0.0 0.00 0.03 0.03 85 1017.0
20260830224318 27 356 0.0 0.0 0.00 0.03 0.03 85 1017.1
20260830223836 27 45 0.0 0.0 0.00 0.03 0.03 85 1017.3
20260830223333 27 45 0.0 0.0 0.00 0.03 0.03 85 1017.4
20260830223047 27 45 0.0 1.6 0.00 0.03 0.03 85 1017.3
20260830222829 27 45 0.0 3.2 0.00 0.03 0.03 85 1017.2
20260830222328 27 285 0.0 6.4 0.00 0.03 0.03 84 1017.0
20260830221826 27 37 1.6 6.4 0.00 0.03 0.03 84 1017.2
20260830221545 27 30 0.0 0.0 0.00 0.03 0.03 84 1017.0
20260830221324 27 329 0.0 0.0 0.00 0.03 0.03 84 1017.0
20260830220821 27 31 0.0 1.6 0.00 0.03 0.03 84 1016.8
20260830220340 27 31 0.0 1.6 0.00 0.03 0.03 84 1016.8
20260830220004 27 31 0.0 4.8 0.00 0.03 0.03 84 1016.8
20260830215815 27 314 0.0 4.8 0.00 0.03 0.03 84 1016.9
20260830215332 27 44 1.6 4.8 0.00 0.03 0.03 84 1017.0
20260830214829 27 263 0.0 3.2 0.00 0.03 0.03 84 1017.0
20260830214550 27 262 0.0 4.8 0.00 0.03 0.03 84 1016.9
20260830214327 27 288 0.0 4.8 0.00 0.03 0.03 84 1017.1
20260830213845 27 23 0.0 9.7 0.00 0.03 0.03 83 1017.0
20260830213320 27 286 0.0 9.7 0.00 0.03 0.03 83 1017.0
20260830213017 27 335 1.6 6.4 0.00 0.03 0.03 83 1016.9
20260830212817 28 318 0.0 8.0 0.00 0.03 0.03 83 1017.1
20260830212334 28 316 0.0 8.0 0.00 0.03 0.03 82 1017.1
20260830211832 28 82 1.6 4.8 0.00 0.03 0.03 82 1017.1
20260830211558 28 144 0.0 6.4 0.00 0.03 0.03 82 1017.1
20260830211328 29 295 0.0 6.4 0.00 0.03 0.03 81 1017.1
20260830210825 30 345 0.0 6.4 0.00 0.03 0.03 81 1017.0
20260830210322 30 139 1.6 8.0 0.00 0.03 0.03 81 1016.7
20260830210043 30 38 0.0 9.7 0.00 0.03 0.03 80 1016.6
20260830205837 30 135 3.2 9.7 0.00 0.03 0.03 81 1016.7
20260830205353 30 113 4.8 9.7 0.00 0.03 0.03 80 1016.7
20260830204830 30 63 3.2 9.7 0.00 0.03 0.03 80 1016.8
20260830204509 30 149 1.6 12.9 0.00 0.03 0.03 79 1016.6
20260830204328 30 134 1.6 16.1 0.00 0.03 0.03 79 1016.6
20260830203823 31 134 6.4 16.1 0.00 0.03 0.03 78 1016.6
20260830203320 31 124 8.0 14.5 0.00 0.03 0.03 78 1016.5
20260830203116 30 134 6.4 11.3 0.00 0.03 0.03 78 1016.5
20260830202819 31 107 4.8 9.7 0.00 0.03 0.03 78 1016.6
20260830202316 31 147 4.8 9.7 0.00 0.03 0.03 78 1016.6
20260830201834 31 130 4.8 12.9 0.00 0.03 0.03 78 1016.4
20260830201546 31 143 4.8 17.7 0.00 0.03 0.03 77 1016.2
20260830201331 31 120 8.0 17.7 0.00 0.03 0.03 77 1016.3
20260830200828 31 121 9.7 16.1 0.00 0.03 0.03 77 1016.2
20260830200325 31 111 6.4 12.9 0.00 0.03 0.03 78 1016.4
20260830200026 31 139 4.8 12.9 0.00 0.08 0.03 78 1016.4
20260830195822 31 97 6.4 12.9 0.00 0.08 0.03 79 1016.5
20260830195319 31 268 6.4 12.9 0.00 0.08 0.03 79 1016.7
20260830194814 31 139 8.0 12.9 0.00 0.08 0.03 79 1016.7
20260830194508 31 105 4.8 11.3 0.00 0.08 0.03 79 1016.7
20260830194332 31 131 4.8 11.3 0.00 0.08 0.03 79 1016.8
20260830193829 31 78 3.2 9.7 0.00 0.08 0.03 80 1016.7
20260830193345 31 123 4.8 11.3 0.00 0.08 0.03 79 1016.6
20260830193029 31 121 4.8 12.9 0.00 0.08 0.03 78 1016.6
20260830192820 32 104 3.2 12.9 0.00 0.08 0.03 78 1016.8
20260830192334 32 136 3.2 12.9 0.00 0.08 0.03 79 1016.8
20260830191830 31 137 4.8 11.3 0.00 0.08 0.03 78 1016.8
20260830191525 31 108 6.4 14.5 0.00 0.08 0.03 79 1016.7
20260830191350 31 105 4.8 14.5 0.00 0.08 0.03 79 1016.9
20260830190826 32 123 6.4 12.9 0.00 0.08 0.03 79 1017.0
20260830190341 32 53 6.4 12.9 0.00 0.08 0.03 80 1017.1
20260830190031 31 48 6.4 12.9 0.00 0.23 0.03 79 1017.1
20260830185816 32 158 4.8 12.9 0.00 0.23 0.03 80 1017.1
20260830185332 31 122 3.2 12.9 0.00 0.23 0.03 80 1017.3
20260830184830 31 136 4.8 16.1 0.00 0.23 0.03 81 1017.4
20260830184543 30 77 6.4 17.7 0.00 0.23 0.03 80 1017.3
20260830184326 31 70 0.0 17.7 0.00 0.23 0.03 81 1017.4
20260830183823 31 36 3.2 11.3 0.00 0.23 0.03 80 1017.3
20260830183318 31 130 4.8 11.3 0.00 0.23 0.03 79 1017.4
20260830183006 31 72 3.2 11.3 0.00 0.23 0.03 80 1017.3
20260830182815 31 117 4.8 11.3 0.00 0.23 0.03 80 1017.4
20260830182332 31 38 4.8 11.3 0.00 0.23 0.03 80 1017.4
20260830181828 31 238 4.8 11.3 0.00 0.23 0.03 80 1017.6
20260830181557 31 37 4.8 11.3 0.00 0.23 0.03 80 1017.4
20260830181324 31 135 6.4 11.3 0.00 0.23 0.03 80 1017.5
20260830180330 31 50 6.4 14.5 0.00 0.23 0.03 80 1017.6
20260830180044 30 60 3.2 11.3 0.00 0.30 0.03 80 1017.6
20260830175848 31 132 4.8 12.9 0.00 0.30 0.03 80 1017.7
20260830175323 31 153 6.4 12.9 0.00 0.30 0.03 80 1017.8
20260830174841 31 60 4.8 11.3 0.00 0.30 0.03 80 1017.7
20260830174551 31 67 3.2 9.7 0.00 0.30 0.03 81 1017.5
20260830174316 31 137 1.6 9.7 0.00 0.30 0.03 81 1017.7
20260830173833 31 166 4.8 12.9 0.00 0.30 0.03 81 1017.7
20260830173328 31 162 6.4 12.9 0.00 0.30 0.03 82 1017.7
20260830173036 30 129 3.2 12.9 0.00 0.30 0.03 81 1017.6
20260830172845 31 143 1.6 8.0 0.00 0.30 0.03 82 1017.8
20260830172341 30 49 1.6 9.7 0.00 0.30 0.03 82 1017.9
20260830171818 30 34 3.2 14.5 0.00 0.30 0.03 82 1018.0
20260830171541 30 136 1.6 14.5 0.00 0.30 0.03 82 1017.9
20260830171316 30 159 6.4 14.5 0.00 0.30 0.03 82 1018.1
20260830170832 30 46 6.4 12.9 0.00 0.30 0.03 82 1018.3